| time (UTC) | temp F | wind direction | speed knots | gust knots | rain 1hr in | rain 24hr in | rain mn in | humidity % | barometer mb |
| 20260906234600 | 96 | 360 | 1.7 | 7.0 | 0.00 | 0.00 | 0.00 | 19 | 1016.2 |
| 20260906233118 | 96 | 360 | 1.7 | 5.2 | 0.00 | 0.00 | 0.00 | 19 | 1016.4 |
| 20260906231603 | 95 | 0 | 1.7 | 9.6 | 0.00 | 0.00 | 0.00 | 19 | 1016.4 |
| 20260906230111 | 94 | 0 | 0.9 | 8.7 | 0.00 | 0.00 | 0.00 | 20 | 1016.5 |
| 20260906224609 | 94 | 360 | 2.6 | 9.6 | 0.00 | 0.00 | 0.00 | 20 | 1016.5 |
| 20260906223106 | 95 | 360 | 1.7 | 8.7 | 0.00 | 0.00 | 0.00 | 20 | 1016.6 |
| 20260906221601 | 95 | 360 | 4.3 | 10.4 | 0.00 | 0.00 | 0.00 | 19 | 1016.8 |
| 20260906220057 | 96 | 360 | 0.9 | 8.7 | 0.00 | 0.00 | 0.00 | 19 | 1017.2 |
| 20260906214604 | 96 | 360 | 1.7 | 7.0 | 0.00 | 0.00 | 0.00 | 19 | 1017.4 |
| 20260906213102 | 96 | 360 | 4.3 | 8.7 | 0.00 | 0.00 | 0.00 | 18 | 1017.7 |
| 20260906211602 | 96 | 360 | 2.6 | 4.3 | 0.00 | 0.00 | 0.00 | 17 | 1018.0 |
| 20260906210110 | 96 | 360 | 1.7 | 5.2 | 0.00 | 0.00 | 0.00 | 17 | 1018.2 |
| 20260906204612 | 95 | 360 | 1.7 | 7.0 | 0.00 | 0.00 | 0.00 | 18 | 1018.5 |
| 20260906203104 | 93 | 360 | 1.7 | 5.2 | 0.00 | 0.00 | 0.00 | 18 | 1018.8 |
| 20260906201610 | 94 | 360 | 2.6 | 7.0 | 0.00 | 0.00 | 0.00 | 17 | 1019.0 |
| 20260906200104 | 93 | 0 | 1.7 | 4.3 | 0.00 | 0.00 | 0.00 | 17 | 1019.1 |
| 20260906194604 | 93 | 360 | 0.0 | 9.6 | 0.00 | 0.00 | 0.00 | 18 | 1019.3 |
| 20260906193101 | 94 | 360 | 2.6 | 7.8 | 0.00 | 0.00 | 0.00 | 17 | 1019.4 |
| 20260906191600 | 94 | 360 | 0.0 | 5.2 | 0.00 | 0.00 | 0.00 | 17 | 1019.8 |
| 20260906190113 | 92 | 360 | 1.7 | 4.3 | 0.00 | 0.00 | 0.00 | 18 | 1020.2 |
| 20260906184601 | 90 | 360 | 0.9 | 7.0 | 0.00 | 0.00 | 0.00 | 20 | 1020.4 |
| 20260906183108 | 89 | 360 | 2.6 | 7.0 | 0.00 | 0.00 | 0.00 | 20 | 1020.6 |
| 20260906181605 | 89 | 360 | 3.5 | 7.8 | 0.00 | 0.00 | 0.00 | 21 | 1020.8 |
| 20260906180119 | 87 | 360 | 0.9 | 5.2 | 0.00 | 0.00 | 0.00 | 25 | 1021.0 |
| 20260906174559 | 86 | 360 | 1.7 | 7.8 | 0.00 | 0.00 | 0.00 | 26 | 1021.1 |
| 20260906173119 | 86 | 360 | 3.5 | 7.0 | 0.00 | 0.00 | 0.00 | 27 | 1021.3 |
| 20260906171603 | 85 | 360 | 1.7 | 5.2 | 0.00 | 0.00 | 0.00 | 29 | 1021.5 |
| 20260906170127 | 83 | 360 | 2.6 | 7.0 | 0.00 | 0.00 | 0.00 | 30 | 1021.6 |
| 20260906164601 | 82 | 360 | 2.6 | 5.2 | 0.00 | 0.00 | 0.00 | 30 | 1021.8 |
| 20260906163114 | 82 | 360 | 2.6 | 7.8 | 0.00 | 0.00 | 0.00 | 31 | 1021.8 |
| 20260906161606 | 81 | 360 | 1.7 | 7.0 | 0.00 | 0.00 | 0.00 | 31 | 1021.8 |
| 20260906154606 | 80 | 360 | 3.5 | 9.6 | 0.00 | 0.00 | 0.00 | 31 | 1021.6 |
| 20260906153103 | 79 | 360 | 6.1 | 10.4 | 0.00 | 0.00 | 0.00 | 31 | 1021.6 |
| 20260906151613 | 78 | 360 | 5.2 | 10.4 | 0.00 | 0.00 | 0.00 | 32 | 1021.6 |
| 20260906150108 | 77 | 360 | 5.2 | 11.3 | 0.00 | 0.00 | 0.00 | 33 | 1021.8 |
| 20260906144603 | 76 | 360 | 6.1 | 10.4 | 0.00 | 0.00 | 0.00 | 33 | 1021.7 |
| 20260906143130 | 74 | 360 | 1.7 | 4.3 | 0.00 | 0.00 | 0.00 | 35 | 1021.6 |
| 20260906141600 | 73 | 360 | 0.9 | 3.5 | 0.00 | 0.00 | 0.00 | 35 | 1021.5 |
| 20260906140109 | 72 | 360 | 0.0 | 4.3 | 0.00 | 0.00 | 0.00 | 35 | 1021.4 |
| 20260906134613 | 72 | 360 | 0.0 | 3.5 | 0.00 | 0.00 | 0.00 | 35 | 1021.3 |
| 20260906133105 | 70 | 0 | 0.0 | 3.5 | 0.00 | 0.00 | 0.00 | 36 | 1021.0 |
| 20260906131559 | 70 | 360 | 1.7 | 4.3 | 0.00 | 0.00 | 0.00 | 36 | 1021.0 |
| 20260906130113 | 70 | 360 | 0.9 | 3.5 | 0.00 | 0.00 | 0.00 | 37 | 1021.0 |
| 20260906124605 | 70 | 360 | 1.7 | 4.3 | 0.00 | 0.00 | 0.00 | 36 | 1020.8 |
| 20260906123137 | 70 | 360 | 1.7 | 7.8 | 0.00 | 0.00 | 0.00 | 35 | 1020.7 |
| 20260906121604 | 71 | 360 | 1.7 | 3.5 | 0.00 | 0.00 | 0.00 | 36 | 1020.8 |
| 20260906120112 | 71 | 0 | 0.9 | 3.5 | 0.00 | 0.00 | 0.00 | 37 | 1020.7 |
| 20260906114611 | 71 | 0 | 0.0 | 1.7 | 0.00 | 0.00 | 0.00 | 38 | 1020.8 |
| 20260906113101 | 72 | 0 | 0.0 | 1.7 | 0.00 | 0.00 | 0.00 | 38 | 1020.7 |
| 20260906111557 | 72 | 0 | 0.0 | 0.0 | 0.00 | 0.00 | 0.00 | 38 | 1020.8 |
| 20260906110105 | 72 | 0 | 0.0 | 0.9 | 0.00 | 0.00 | 0.00 | 37 | 1020.5 |
| 20260906104600 | 73 | 0 | 0.0 | 1.7 | 0.00 | 0.00 | 0.00 | 37 | 1020.5 |
| 20260906103101 | 74 | 0 | 0.0 | 1.7 | 0.00 | 0.00 | 0.00 | 35 | 1020.5 |
| 20260906101601 | 74 | 0 | 0.0 | 1.7 | 0.00 | 0.00 | 0.00 | 35 | 1020.4 |
| 20260906100100 | 75 | 0 | 0.0 | 0.0 | 0.00 | 0.00 | 0.00 | 34 | 1020.4 |
| 20260906094607 | 75 | 0 | 0.0 | 2.6 | 0.00 | 0.00 | 0.00 | 34 | 1020.2 |
| 20260906093105 | 75 | 360 | 0.9 | 3.5 | 0.00 | 0.00 | 0.00 | 34 | 1020.1 |
| 20260906091606 | 75 | 360 | 0.9 | 5.2 | 0.00 | 0.00 | 0.00 | 34 | 1020.0 |
| 20260906084559 | 75 | 360 | 1.7 | 2.6 | 0.00 | 0.00 | 0.00 | 34 | 1019.9 |
| 20260906083105 | 75 | 360 | 0.9 | 2.6 | 0.00 | 0.00 | 0.00 | 34 | 1020.1 |
| 20260906081603 | 75 | 360 | 0.9 | 3.5 | 0.00 | 0.00 | 0.00 | 34 | 1020.2 |
| 20260906074606 | 76 | 360 | 2.6 | 5.2 | 0.00 | 0.00 | 0.00 | 34 | 1020.4 |
| 20260906073104 | 76 | 360 | 1.7 | 4.3 | 0.00 | 0.00 | 0.00 | 34 | 1020.5 |
| 20260906071604 | 76 | 360 | 1.7 | 4.3 | 0.00 | 0.00 | 0.00 | 33 | 1020.5 |
| 20260906064602 | 77 | 0 | 0.0 | 4.3 | 0.00 | 0.00 | 0.00 | 33 | 1020.6 |
| 20260906063103 | 77 | 360 | 0.9 | 4.3 | 0.00 | 0.00 | 0.00 | 33 | 1020.5 |
| 20260906061604 | 77 | 0 | 0.0 | 3.5 | 0.00 | 0.00 | 0.00 | 34 | 1020.3 |
| 20260906060100 | 77 | 360 | 0.9 | 4.3 | 0.00 | 0.00 | 0.00 | 33 | 1020.3 |
| 20260906054605 | 78 | 360 | 2.6 | 5.2 | 0.00 | 0.00 | 0.00 | 33 | 1020.1 |
| 20260906053108 | 78 | 360 | 0.0 | 7.8 | 0.00 | 0.00 | 0.00 | 32 | 1020.1 |
| 20260906051605 | 78 | 360 | 3.5 | 7.8 | 0.00 | 0.00 | 0.00 | 32 | 1020.1 |
| 20260906050108 | 79 | 360 | 3.5 | 8.7 | 0.00 | 0.00 | 0.00 | 31 | 1019.9 |
| 20260906044559 | 80 | 360 | 3.5 | 8.7 | 0.00 | 0.00 | 0.00 | 31 | 1020.0 |
| 20260906043108 | 80 | 360 | 3.5 | 7.0 | 0.00 | 0.00 | 0.00 | 30 | 1019.9 |
| 20260906041603 | 81 | 360 | 4.3 | 8.7 | 0.00 | 0.00 | 0.00 | 30 | 1019.8 |
| 20260906040114 | 81 | 360 | 4.3 | 8.7 | 0.00 | 0.00 | 0.00 | 30 | 1019.9 |
| 20260906034605 | 81 | 360 | 3.5 | 7.0 | 0.00 | 0.00 | 0.00 | 29 | 1020.0 |
| 20260906033109 | 81 | 360 | 3.5 | 7.8 | 0.00 | 0.00 | 0.00 | 29 | 1019.8 |
| 20260906031603 | 82 | 360 | 3.5 | 8.7 | 0.00 | 0.00 | 0.00 | 28 | 1019.4 |
| 20260906024558 | 83 | 360 | 3.5 | 7.8 | 0.00 | 0.00 | 0.00 | 28 | 1019.1 |
| 20260906023103 | 84 | 360 | 2.6 | 7.0 | 0.00 | 0.00 | 0.00 | 28 | 1018.9 |
| 20260906021606 | 84 | 360 | 2.6 | 5.2 | 0.00 | 0.00 | 0.00 | 28 | 1018.7 |
| 20260906020107 | 85 | 360 | 2.6 | 5.2 | 0.00 | 0.00 | 0.00 | 28 | 1018.7 |
| 20260906014604 | 86 | 360 | 1.7 | 3.5 | 0.00 | 0.00 | 0.00 | 28 | 1018.5 |
| 20260906013110 | 87 | 360 | 0.9 | 7.8 | 0.00 | 0.00 | 0.00 | 28 | 1018.5 |
| 20260906011608 | 88 | 360 | 1.7 | 4.3 | 0.00 | 0.00 | 0.00 | 27 | 1018.6 |
| 20260906010100 | 89 | 360 | 2.6 | 7.0 | 0.00 | 0.00 | 0.00 | 27 | 1018.6 |
| 20260906004611 | 89 | 360 | 3.5 | 9.6 | 0.00 | 0.00 | 0.00 | 27 | 1018.5 |
| 20260906003106 | 90 | 360 | 3.5 | 9.6 | 0.00 | 0.00 | 0.00 | 26 | 1018.5 |
| 20260906001604 | 90 | 360 | 5.2 | 10.4 | 0.00 | 0.00 | 0.00 | 26 | 1018.5 |
| 20260906000107 | 90 | 360 | 4.3 | 9.6 | 0.00 | 0.00 | 0.00 | 26 | 1018.4 |